Change the Weather History Date:

Friday, May 10, 2013

  Actual Average (KMML) Record (KMML)
Temperature  
Mean Temperature 52 °F -  
Max Temperature 67 °F 71 °F 93 °F (1987)
Min Temperature 37 °F 46 °F 25 °F (1981)
Degree Days  
Heating Degree Days 13    
Growing Degree Days 2 (Base 50)    
Moisture  
Dew Point 36 °F    
Average Humidity 57    
Maximum Humidity 84    
Minimum Humidity 27    
Precipitation  
Precipitation 0.00 in - - ()
Sea Level Pressure  
Sea Level Pressure 30.06 in    
Wind  
Wind Speed 5 mph (NNW)    
Max Wind Speed 28 mph    
Max Gust Speed 38 mph    
Visibility 10 miles    
Events      
Averages and records for this station are not official NWS values.
T = Trace of Precipitation, MM = Missing Value Source: NWS Daily Summary

Daily Weather History Graph

Daily Weather History Graph

Search for Another Location

Airport or City:

Trip Planner

Search our weather history database for the weather conditions in past years. The results will help you decide how hot, cold, wet, or windy it might be!

Date:

Astronomy

May. 10, 2013 Rise Set
Actual Time 6:01 AM CDT 8:37 PM CDT
Civil Twilight 5:28 AM CDT 9:10 PM CDT
Nautical Twilight 4:46 AM CDT 9:51 PM CDT
Astronomical Twilight 3:59 AM CDT 10:39 PM CDT
Moon 6:25 AM CDT (5/10) 9:28 PM CDT (5/10)
Length of Visible Light 15h 42m
Length of Day
14h 36m
New Moon, 0% of the Moon is Illuminated
May 10
New Moon
May 17
First Quarter
May 24
Full
May 31
Last Quarter
Jun 8
New

Hourly Weather History & Observations

Time (CDT) Temp. Windchill Dew Point Humidity Pressure Visibility Wind Dir Wind Speed Gust Speed Precip Events Conditions
12:14 AM 44.8 °F 40.4 °F 39.2 °F 81% 30.13 in 10.0 mi North 8.1 mph - N/A   Overcast
1:13 AM 44.4 °F 39.5 °F 37.8 °F 77% 30.14 in 10.0 mi North 9.2 mph - N/A   Overcast
1:34 AM 43.9 °F 39.3 °F 36.7 °F 76% 30.14 in 10.0 mi North 8.1 mph - N/A   Overcast
1:54 AM 43.7 °F 38.6 °F 37.4 °F 78% 30.13 in 10.0 mi NNE 9.2 mph - N/A   Overcast
2:13 AM 43.9 °F 37.9 °F 36.7 °F 76% 30.12 in 10.0 mi NE 11.5 mph - N/A   Overcast
2:33 AM 43.7 °F 37.3 °F 36.1 °F 75% 30.12 in 10.0 mi NE 12.7 mph - N/A   Overcast
2:54 AM 43.3 °F 38.1 °F 34.9 °F 72% 30.12 in 10.0 mi NE 9.2 mph - N/A   Overcast
3:14 AM 42.4 °F - 35.8 °F 77% 30.12 in 10.0 mi Calm Calm - N/A   Overcast
3:54 AM 41.9 °F - 35.6 °F 78% 30.13 in 10.0 mi Calm Calm - N/A   Mostly Cloudy
4:14 AM 41.9 °F - 35.1 °F 77% 30.13 in 10.0 mi Calm Calm - N/A   Overcast
4:34 AM 41.7 °F - 34.7 °F 76% 30.12 in 10.0 mi Calm Calm - N/A   Mostly Cloudy
4:54 AM 41.0 °F - 33.3 °F 74% 30.13 in 10.0 mi Calm Calm - N/A   Scattered Clouds
5:13 AM 39.4 °F - 33.4 °F 79% 30.12 in 10.0 mi Calm Calm - N/A   Clear
5:34 AM 37.9 °F - 33.6 °F 84% 30.12 in 10.0 mi Calm Calm - N/A   Clear
5:54 AM 37.4 °F - 32.9 °F 84% 30.13 in 10.0 mi Calm Calm - N/A   Clear
6:13 AM 38.7 °F - 32.0 °F 77% 30.12 in 10.0 mi Calm Calm - N/A   Clear
6:34 AM 38.5 °F 32.7 °F 32.2 °F 78% 30.12 in 10.0 mi NNE 8.1 mph - N/A   Clear
7:13 AM 39.6 °F 33.5 °F 32.4 °F 75% 30.12 in 10.0 mi NNE 9.2 mph - N/A   Clear
7:34 AM 39.7 °F - 32.2 °F 74% 30.13 in 10.0 mi Calm Calm - N/A   Clear
8:13 AM 41.0 °F - 32.7 °F 72% 30.14 in 10.0 mi Calm Calm - N/A   Clear
8:34 AM 41.7 °F - 32.2 °F 69% 30.13 in 10.0 mi Calm Calm - N/A   Clear
8:53 AM 42.3 °F - 32.7 °F 69% 30.14 in 10.0 mi Calm Calm - N/A   Clear
9:14 AM 42.8 °F - 32.7 °F 68% 30.13 in 10.0 mi Calm Calm - N/A   Clear
9:34 AM 43.2 °F - 33.3 °F 68% 30.13 in 10.0 mi Calm Calm - N/A   Clear
9:54 AM 44.6 °F - 34.9 °F 69% 30.13 in 10.0 mi Calm Calm - N/A   Clear
10:13 AM 45.5 °F - 36.0 °F 69% 30.13 in 10.0 mi Calm Calm - N/A   Clear
10:34 AM 46.6 °F - 37.2 °F 70% 30.12 in 10.0 mi NNW 3.5 mph - N/A   Clear
10:53 AM 47.5 °F - 38.1 °F 70% 30.12 in 10.0 mi Calm Calm - N/A   Clear
11:14 AM 48.9 °F - 39.6 °F 70% 30.12 in 10.0 mi Calm Calm - N/A   Clear
11:34 AM 50.4 °F - 41.0 °F 70% 30.12 in 10.0 mi NNW 5.8 mph - N/A   Clear
12:14 PM 52.5 °F - 39.7 °F 62% 30.11 in 10.0 mi NNW 3.5 mph - N/A   Clear
12:33 PM 53.6 °F - 39.6 °F 59% 30.11 in 10.0 mi NNW 5.8 mph - N/A   Clear
12:54 PM 55.4 °F - 38.7 °F 53% 30.10 in 10.0 mi NNW 5.8 mph - N/A   Clear
1:14 PM 55.9 °F - 38.5 °F 52% 30.10 in 10.0 mi Calm Calm - N/A   Clear
1:33 PM 57.4 °F - 34.7 °F 43% 30.09 in 10.0 mi Calm Calm - N/A   Clear
1:54 PM 58.1 °F - 30.9 °F 36% 30.08 in 10.0 mi Calm Calm - N/A   Clear
2:14 PM 59.0 °F - 32.0 °F 36% 30.08 in 10.0 mi Calm Calm - N/A   Clear
2:33 PM 59.5 °F - 32.0 °F 35% 30.07 in 10.0 mi Calm Calm - N/A   Clear
2:54 PM 60.6 °F - 33.6 °F 36% 30.06 in 10.0 mi Calm Calm - N/A   Clear
3:14 PM 61.5 °F - 30.4 °F 31% 30.05 in 10.0 mi Calm Calm - N/A   Clear
3:33 PM 62.1 °F - 28.8 °F 28% 30.04 in 10.0 mi Calm Calm - N/A   Clear
3:54 PM 63.3 °F - 29.8 °F 28% 30.03 in 10.0 mi Calm Calm - N/A   Clear
4:13 PM 63.9 °F - 30.9 °F 29% 30.02 in 10.0 mi Calm Calm - N/A   Clear
4:34 PM 65.3 °F - 32.0 °F 29% 30.01 in 10.0 mi Calm Calm - N/A   Clear
4:53 PM 65.5 °F - 30.6 °F 27% 30.00 in 10.0 mi Calm Calm - N/A   Clear
5:14 PM 66.4 °F - 32.9 °F 29% 29.99 in 10.0 mi WNW 6.9 mph - N/A   Clear
5:33 PM 67.1 °F - 35.1 °F 31% 29.99 in 10.0 mi Calm Calm - N/A   Clear
5:53 PM 66.9 °F - 34.5 °F 30% 29.98 in 10.0 mi Calm Calm - N/A   Clear
6:14 PM 67.5 °F - 35.2 °F 30% 29.97 in 10.0 mi Calm Calm - N/A   Clear
6:33 PM 67.5 °F - 34.0 °F 29% 29.97 in 10.0 mi WNW 9.2 mph - N/A   Clear
6:53 PM 66.7 °F - 34.3 °F 30% 29.96 in 10.0 mi Calm Calm - N/A   Clear
7:14 PM 66.7 °F - 34.2 °F 30% 29.97 in 10.0 mi WNW 5.8 mph - N/A   Clear
7:33 PM 66.0 °F - 38.3 °F 36% 29.96 in 10.0 mi West 5.8 mph - N/A   Clear
7:54 PM 64.0 °F - 39.2 °F 40% 29.95 in 10.0 mi Calm Calm - N/A   Clear
8:14 PM 63.1 °F - 41.0 °F 44% 29.95 in 10.0 mi Calm Calm - N/A   Clear
8:34 PM 61.2 °F - 43.7 °F 53% 29.94 in 10.0 mi Calm Calm - N/A   Clear
8:54 PM 60.8 °F - 43.7 °F 53% 29.94 in 10.0 mi Calm Calm - N/A   Scattered Clouds
9:14 PM 61.2 °F - 43.9 °F 53% 29.95 in 10.0 mi Calm Calm - N/A   Overcast
9:34 PM 61.0 °F - 44.4 °F 54% 29.95 in 10.0 mi Calm Calm - N/A   Overcast
9:53 PM 61.2 °F - 44.1 °F 53% 29.95 in 10.0 mi WSW 3.5 mph - N/A   Overcast
10:13 PM 59.4 °F - 43.3 °F 55% 29.98 in 10.0 mi NW 27.6 mph 38.0 mph N/A   Scattered Clouds
10:34 PM 55.9 °F - 41.5 °F 58% 30.00 in 10.0 mi NNW 25.3 mph 36.8 mph N/A   Scattered Clouds
10:53 PM 54.9 °F - 41.2 °F 60% 30.01 in 10.0 mi NNW 23.0 mph 29.9 mph N/A   Scattered Clouds
11:13 PM 54.1 °F - 40.3 °F 59% 30.02 in 10.0 mi NNW 19.6 mph 25.3 mph N/A   Mostly Cloudy
11:33 PM 52.3 °F - 38.1 °F 58% 30.04 in 10.0 mi NNW 19.6 mph 28.8 mph N/A   Scattered Clouds
11:54 PM 50.9 °F - 36.1 °F 57% 30.04 in 10.0 mi NNW 18.4 mph 28.8 mph N/A   Clear